TimeCST,TemperatureF,Dew PointF,Humidity,Sea Level PressureIn,VisibilityMPH,Wind Direction,Wind SpeedMPH,Gust SpeedMPH,PrecipitationIn,Events,Conditions,WindDirDegrees,DateUTC
12:53 AM,70.0,61.0,73,29.85,10.0,NW,8.1,-,N/A,,Partly Cloudy,320,2012-12-17 06:53:00
1:53 AM,69.1,60.1,73,29.86,10.0,NNW,5.8,-,N/A,,Clear,330,2012-12-17 07:53:00
2:53 AM,69.1,60.1,73,29.86,10.0,NNW,6.9,-,N/A,,Clear,340,2012-12-17 08:53:00
3:53 AM,68.0,61.0,78,29.87,10.0,NNE,6.9,-,0.00,Rain,Light Rain,20,2012-12-17 09:53:00
4:53 AM,66.9,60.1,79,29.89,10.0,NNW,5.8,-,0.00,,Clear,340,2012-12-17 10:53:00
5:53 AM,66.9,60.1,79,29.91,10.0,NW,4.6,-,N/A,,Partly Cloudy,320,2012-12-17 11:53:00
6:53 AM,66.0,59.0,78,29.96,10.0,NW,6.9,-,N/A,,Clear,320,2012-12-17 12:53:00
7:53 AM,66.0,55.0,68,29.99,10.0,NNW,9.2,-,N/A,,Clear,340,2012-12-17 13:53:00
8:53 AM,66.0,53.1,63,30.01,10.0,NW,5.8,-,N/A,,Clear,320,2012-12-17 14:53:00
9:53 AM,66.9,50.0,54,30.03,10.0,NW,8.1,-,N/A,,Clear,310,2012-12-17 15:53:00
10:53 AM,71.1,48.0,44,30.03,10.0,NW,8.1,-,N/A,,Clear,310,2012-12-17 16:53:00
11:53 AM,75.9,39.0,26,30.01,10.0,North,9.2,-,N/A,,Clear,350,2012-12-17 17:53:00
12:53 PM,79.0,35.1,20,29.97,10.0,NW,9.2,-,N/A,,Scattered Clouds,320,2012-12-17 18:53:00
1:53 PM,80.1,35.1,20,29.93,10.0,NNW,6.9,-,N/A,,Clear,340,2012-12-17 19:53:00
2:53 PM,80.1,34.0,19,29.91,10.0,Variable,5.8,-,N/A,,Clear,0,2012-12-17 20:53:00
3:53 PM,82.0,34.0,18,29.91,10.0,Variable,4.6,-,N/A,,Clear,0,2012-12-17 21:53:00
6:53 PM,68.0,41.0,37,29.91,10.0,SE,3.5,-,N/A,,Clear,130,2012-12-18 00:53:00
7:53 PM,66.0,42.1,42,29.93,10.0,SE,4.6,-,N/A,,Clear,140,2012-12-18 01:53:00
8:53 PM,60.1,46.0,60,29.95,10.0,Calm,Calm,-,N/A,,Clear,0,2012-12-18 02:53:00
9:53 PM,59.0,43.0,55,29.96,10.0,SE,4.6,-,N/A,,Clear,140,2012-12-18 03:53:00
10:53 PM,57.0,42.1,57,29.97,10.0,SE,4.6,-,N/A,,Clear,140,2012-12-18 04:53:00
11:53 PM,55.9,44.1,64,29.97,10.0,Calm,Calm,-,N/A,,Clear,0,2012-12-18 05:53:00